Weather in Predivinsk

Russia / Krasnoyarsk Krai     57°03′41″N   93°26′08″E
temp.,
°C
wind,
m/s
gust,
m/s
humid.,
%
clouds,
%
prec.,
mm/h
press.,
hPa
HPBL,
m
22 october, fri
fri2201:00+3sse257414 0.0 101671
04:00+3sse247266 0.0 101564
07:00+3sse2469100 0.0 101557
10:00+5s2760100 0.0 1016168
13:00+10s374894 0.0 1015270
16:00+9s385746 0.0 1015180
19:00+6s356698 0.0 101674
22:00+5ssw2374100 0.0 101856
23 october, sat
sat2301:00+5wsw51077100 1.2 10211137
04:00+4sw51183100 0.9 10221116
07:00+3sw5116817 1.1 10241133
10:00+3sw51166100 0.0 10241254
13:00+5sw61354100 0.0 10221734
16:00+5sw61354100 0.0 10201695
19:00+5sw61454100 0.0 10191532
22:00+5sw61458100 0.0 10171373
24 october, sun
sun2401:00+4ssw71665100 0.1 10151428
04:00+3sw71692100 0.6 10141271
07:00+3sw61596100 0.8 10141110
10:00+4sw61497100 0.3 10141065
13:00+5sw71584100 0.4 10131275
16:00+4sw61396100 0.7 10141142
19:00+5wsw61384100 0.9 10151175
22:00+5wsw51287100 0.4 10171358
25 october, mon
mon2501:00+4w5128232 1.1 1018768
04:00+3wsw31086100 0.0 1020415
07:00+2sw2894100 0.0 1022287
10:00+5ssw398999 0.0 1021620
13:00+7sw4974100 0.0 10181022
16:00+6ssw51288100 0.4 10161143
19:00+8sw61474100 1.1 10141106
22:00+9sw61571100 0.0 10131073
26 october, tue
tue2601:00+8wsw61569100 0.0 10131164
04:00+8wsw61372100 0.0 10141347
07:00+6w5117464 0.0 10161039
10:00+6w497434 0.0 1018858
13:00+7w356397 0.0 1018887
16:00+7s1168100 0.0 101718
19:00+5se2476100 0.0 1015100
22:00+5ese2485100 0.0 101276